Flag for Portugal Weather past 2 weeks in Funchal, Madeira, Portugal

Now
75 °F

Passing clouds.


Feels Like: 77 °F
Forecast: 74 / 80 °F
Wind: 13 mph from North

Location: Aeroporto Da Madeira

Current Time: Jul 28, 2015 at 4:58:12 AM

Latest Report: Jul 28, 2015 at 4:00 AM


Visibility: N/A

Pressure: 30.09 "Hg

Humidity: 74%

Dew point: 66 °F

Location of FunchalLocation

Historic Weather in Funchal — Graph

°F

Funchal temperature yesterday

Maximum temperature yesterday: 82 °F (at 5:00 PM)
Minimum temperature yesterday: 73 °F (at 12:00 AM)
Average temperature yesterday: 77 °F

Past Weeks' High & Low Weather Summary

 TemperatureHumidityPressure
High88 °F (Jul 15, 4:30 PM)94% (Jul 19, 2:00 AM)30.21 "Hg (Jul 19, 2:00 AM)
Low68 °F (Jul 13, 3:00 AM)18% (Jul 15, 2:30 AM)30.04 "Hg (Jul 15, 4:30 AM)
Average76 °F67%30.12 "Hg
* Reported Jul 13 3:00 AM — Jul 28 3:30 AM, Funchal, Weather by CustomWeather, © 2015

Note: Actual official high and low records may vary slightly from our data, if they occured in-between our weather recording intervals... More about our weather records

Advertising

Funchal weather history for previous 24 hours

 ConditionsComfort  
Time TempWeatherWind HumidityBarometerVisibility
3:30 AM
Tue, Jul 28
75 °FPassing clouds.13 mph78%30.09 "HgN/A
3:00 AM73 °FPassing clouds.14 mph83%30.09 "HgN/A
2:30 AM75 °FPassing clouds.16 mph78%30.09 "HgN/A
2:00 AM75 °FPassing clouds.13 mph78%30.09 "HgN/A
1:30 AM73 °FPassing clouds.12 mph83%30.12 "Hg6 mi
1:00 AM73 °FPassing clouds.12 mph83%30.12 "HgN/A
12:30 AM73 °FPassing clouds.13 mph83%30.12 "Hg6 mi
12:00 AM75 °FPassing clouds.14 mph78%30.12 "HgN/A
11:30 PM
Mon, Jul 27
75 °FPassing clouds.12 mph78%30.12 "HgN/A
11:00 PM75 °FPassing clouds.12 mph74%30.12 "HgN/A
10:30 PM75 °FPassing clouds.14 mph74%30.12 "HgN/A
10:00 PM75 °FPassing clouds.13 mph74%30.12 "HgN/A
9:30 PM75 °FPassing clouds.16 mph74%30.12 "HgN/A
9:00 PM75 °FPassing clouds.14 mph74%30.12 "HgN/A
8:30 PM77 °FPassing clouds.15 mph69%30.09 "HgN/A
8:00 PM77 °FPassing clouds.15 mph69%30.09 "HgN/A
7:30 PM79 °FPassing clouds.15 mph65%30.09 "HgN/A
7:00 PM79 °FPassing clouds.15 mph65%30.09 "HgN/A
6:30 PM79 °FPassing clouds.16 mph65%30.09 "HgN/A
6:00 PM82 °FPassing clouds.16 mph51%30.09 "HgN/A
5:30 PM81 °FPassing clouds.14 mph58%30.09 "HgN/A
5:00 PM82 °FPassing clouds.14 mph55%30.09 "HgN/A
4:30 PM81 °FPassing clouds.15 mph62%30.12 "HgN/A
4:00 PM81 °FPassing clouds.16 mph58%30.12 "HgN/A
3:30 PM81 °FPassing clouds.15 mph58%30.12 "HgN/A
3:00 PM81 °FPassing clouds.17 mph58%30.12 "HgN/A
2:30 PM81 °FScattered clouds.20 mph62%30.12 "HgN/A
2:00 PM79 °FScattered clouds.16 mph70%30.15 "HgN/A
1:30 PM81 °FScattered clouds.15 mph62%30.15 "HgN/A
1:00 PM79 °FScattered clouds.18 mph65%30.15 "HgN/A
12:30 PM79 °FScattered clouds.18 mph70%30.15 "HgN/A
12:00 PM79 °FScattered clouds.17 mph65%30.15 "HgN/A
11:30 AM79 °FScattered clouds.21 mph65%30.12 "HgN/A
11:00 AM77 °FScattered clouds.17 mph69%30.12 "HgN/A
10:30 AM77 °FScattered clouds.14 mph69%30.12 "HgN/A
10:00 AM77 °FScattered clouds.15 mph69%30.12 "HgN/A
9:30 AM75 °FScattered showers. Scattered clouds.17 mph78%30.12 "HgN/A
9:00 AM75 °FPassing clouds.14 mph74%30.12 "HgN/A
8:30 AM75 °FPassing clouds.17 mph74%30.12 "HgN/A
8:00 AM75 °FPassing clouds.14 mph78%30.12 "HgN/A
7:30 AM75 °FPassing clouds.16 mph74%30.12 "HgN/A
7:00 AM75 °FPassing clouds.13 mph78%30.12 "HgN/A
6:30 AM73 °FPassing clouds.14 mph78%30.12 "HgN/A
6:00 AM73 °FPassing clouds.10 mph78%30.12 "Hg6 mi
5:30 AM75 °FPassing clouds.12 mph74%30.12 "HgN/A
5:00 AM75 °FPassing clouds.13 mph74%30.12 "HgN/A
4:00 AM75 °FPassing clouds.15 mph69%30.12 "HgN/A
Weather by CustomWeather, © 2015

See weather overviewHow to use our weather pages